| time (UTC) | temp F | wind direction | speed MPH | gust MPH | rain 1hr in | rain 24hr in | rain mn in | humidity % | barometer mb |
| 20260902220631 | 85 | 0.0 | 0.0 | 0.00 | 0.00 | 0.00 | 47 | 1017.8 | |
| 20260902215631 | 86 | 0.0 | 0.0 | 0.00 | 0.00 | 0.00 | 46 | 1017.8 | |
| 20260902214631 | 86 | 0.0 | 0.0 | 0.00 | 0.00 | 0.00 | 47 | 1017.7 | |
| 20260902213631 | 86 | 0.0 | 0.0 | 0.00 | 0.00 | 0.00 | 48 | 1017.8 | |
| 20260902212631 | 85 | 0.0 | 0.0 | 0.00 | 0.00 | 0.00 | 48 | 1017.8 | |
| 20260902211631 | 85 | 0.0 | 0.0 | 0.00 | 0.00 | 0.00 | 50 | 1017.7 | |
| 20260902210631 | 85 | 0.0 | 0.0 | 0.00 | 0.00 | 0.00 | 49 | 1017.6 | |
| 20260902205631 | 86 | 0.0 | 0.0 | 0.00 | 0.00 | 0.00 | 48 | 1017.4 | |
| 20260902204631 | 85 | 0.0 | 0.0 | 0.00 | 0.00 | 0.00 | 47 | 1017.5 | |
| 20260902203631 | 85 | 0.0 | 0.0 | 0.00 | 0.00 | 0.00 | 46 | 1017.3 | |
| 20260902202631 | 85 | 0.0 | 0.0 | 0.00 | 0.00 | 0.00 | 49 | 1017.1 | |
| 20260902201631 | 86 | 0.0 | 0.0 | 0.00 | 0.00 | 0.00 | 47 | 1016.9 | |
| 20260902200631 | 86 | 0.0 | 0.0 | 0.00 | 0.00 | 0.00 | 49 | 1016.8 | |
| 20260902195631 | 86 | 0.0 | 0.0 | 0.00 | 0.00 | 0.00 | 48 | 1016.7 | |
| 20260902194631 | 87 | 0.0 | 0.0 | 0.00 | 0.00 | 0.00 | 47 | 1016.4 | |
| 20260902193631 | 87 | 0.0 | 0.0 | 0.00 | 0.00 | 0.00 | 49 | 1016.2 | |
| 20260902192631 | 88 | 0.0 | 0.0 | 0.00 | 0.00 | 0.00 | 46 | 1016.0 | |
| 20260902191631 | 88 | 0.0 | 0.0 | 0.00 | 0.00 | 0.00 | 47 | 1015.8 | |
| 20260902190631 | 90 | 0.0 | 0.0 | 0.00 | 0.00 | 0.00 | 44 | 1015.6 | |
| 20260902185631 | 91 | 0.0 | 0.0 | 0.00 | 0.00 | 0.00 | 41 | 1015.3 | |
| 20260902184631 | 92 | 0.0 | 0.0 | 0.00 | 0.00 | 0.00 | 39 | 1015.1 | |
| 20260902183631 | 93 | 0.0 | 0.0 | 0.00 | 0.00 | 0.00 | 37 | 1014.9 | |
| 20260902182631 | 94 | 0.0 | 0.0 | 0.00 | 0.00 | 0.00 | 36 | 1014.8 | |
| 20260902181631 | 96 | 0.0 | 0.0 | 0.00 | 0.00 | 0.00 | 36 | 1014.7 | |
| 20260902180631 | 98 | 0.0 | 0.0 | 0.00 | 0.00 | 0.00 | 34 | 1014.4 | |
| 20260902175631 | 99 | 0.0 | 0.0 | 0.00 | 0.00 | 0.00 | 33 | 1014.4 | |
| 20260902174631 | 100 | 0.0 | 0.0 | 0.00 | 0.00 | 0.00 | 30 | 1014.2 | |
| 20260902173631 | 102 | 0.0 | 0.0 | 0.00 | 0.00 | 0.00 | 28 | 1014.1 | |
| 20260902172631 | 103 | 0.0 | 0.0 | 0.00 | 0.00 | 0.00 | 28 | 1013.9 | |
| 20260902171631 | 102 | 0.0 | 0.0 | 0.00 | 0.00 | 0.00 | 28 | 1013.9 | |
| 20260902170631 | 103 | 0.0 | 0.0 | 0.00 | 0.00 | 0.00 | 30 | 1013.7 | |
| 20260902165631 | 103 | 0.0 | 0.0 | 0.00 | 0.00 | 0.00 | 29 | 1013.8 | |
| 20260902164631 | 103 | 0.0 | 0.0 | 0.00 | 0.00 | 0.00 | 29 | 1013.7 | |
| 20260902163631 | 102 | 0.0 | 0.0 | 0.00 | 0.00 | 0.00 | 34 | 1013.8 | |
| 20260902162631 | 103 | 0.0 | 0.0 | 0.00 | 0.00 | 0.00 | 28 | 1013.7 | |
| 20260902161631 | 104 | 0.0 | 0.0 | 0.00 | 0.00 | 0.00 | 28 | 1013.7 | |
| 20260902160631 | 104 | 0.0 | 0.0 | 0.00 | 0.00 | 0.00 | 29 | 1013.7 | |
| 20260902155631 | 104 | 0.0 | 0.0 | 0.00 | 0.00 | 0.00 | 28 | 1013.7 | |
| 20260902154631 | 104 | 0.0 | 0.0 | 0.00 | 0.00 | 0.00 | 28 | 1013.8 | |
| 20260902153631 | 104 | 0.0 | 0.0 | 0.00 | 0.00 | 0.00 | 29 | 1013.8 | |
| 20260902152631 | 105 | 0.0 | 0.0 | 0.00 | 0.00 | 0.00 | 28 | 1013.7 | |
| 20260902151631 | 106 | 0.0 | 0.0 | 0.00 | 0.00 | 0.00 | 29 | 1013.7 | |
| 20260902150631 | 105 | 0.0 | 0.0 | 0.00 | 0.00 | 0.00 | 28 | 1013.8 | |
| 20260902145631 | 106 | 0.0 | 0.0 | 0.00 | 0.00 | 0.00 | 29 | 1013.9 | |
| 20260902144631 | 106 | 0.0 | 0.0 | 0.00 | 0.00 | 0.00 | 30 | 1013.9 | |
| 20260902143631 | 104 | 0.0 | 0.0 | 0.00 | 0.00 | 0.00 | 31 | 1014.1 | |
| 20260902142631 | 104 | 0.0 | 0.0 | 0.00 | 0.00 | 0.00 | 32 | 1014.4 | |
| 20260902141631 | 106 | 0.0 | 0.0 | 0.00 | 0.00 | 0.00 | 32 | 1014.3 | |
| 20260902140631 | 104 | 0.0 | 0.0 | 0.00 | 0.00 | 0.00 | 32 | 1014.6 | |
| 20260902135631 | 104 | 0.0 | 0.0 | 0.00 | 0.00 | 0.00 | 33 | 1014.7 | |
| 20260902134631 | 105 | 0.0 | 0.0 | 0.00 | 0.00 | 0.00 | 32 | 1014.8 | |
| 20260902133631 | 103 | 0.0 | 0.0 | 0.00 | 0.00 | 0.00 | 35 | 1015.0 | |
| 20260902132631 | 104 | 0.0 | 0.0 | 0.00 | 0.00 | 0.00 | 35 | 1015.0 | |
| 20260902131631 | 104 | 0.0 | 0.0 | 0.00 | 0.00 | 0.00 | 35 | 1015.1 | |
| 20260902130631 | 104 | 0.0 | 0.0 | 0.00 | 0.00 | 0.00 | 36 | 1015.3 | |
| 20260902125631 | 104 | 0.0 | 0.0 | 0.00 | 0.00 | 0.00 | 36 | 1015.3 | |
| 20260902124631 | 102 | 0.0 | 0.0 | 0.00 | 0.00 | 0.00 | 38 | 1015.5 | |
| 20260902123631 | 100 | 0.0 | 0.0 | 0.00 | 0.00 | 0.00 | 39 | 1015.8 | |
| 20260902122631 | 100 | 0.0 | 0.0 | 0.00 | 0.00 | 0.00 | 40 | 1016.0 | |
| 20260902121631 | 102 | 0.0 | 0.0 | 0.00 | 0.00 | 0.00 | 40 | 1015.9 | |
| 20260902120631 | 98 | 0.0 | 0.0 | 0.00 | 0.00 | 0.00 | 42 | 1016.2 | |
| 20260902115631 | 98 | 0.0 | 0.0 | 0.00 | 0.00 | 0.00 | 43 | 1016.3 | |
| 20260902114631 | 100 | 0.0 | 0.0 | 0.00 | 0.00 | 0.00 | 42 | 1016.3 | |
| 20260902113631 | 96 | 0.0 | 0.0 | 0.00 | 0.00 | 0.00 | 46 | 1016.7 | |
| 20260902112631 | 96 | 0.0 | 0.0 | 0.00 | 0.00 | 0.00 | 46 | 1016.8 | |
| 20260902111631 | 96 | 0.0 | 0.0 | 0.00 | 0.00 | 0.00 | 47 | 1017.0 | |
| 20260902110631 | 94 | 0.0 | 0.0 | 0.00 | 0.00 | 0.00 | 50 | 1017.3 | |
| 20260902105631 | 94 | 0.0 | 0.0 | 0.00 | 0.00 | 0.00 | 50 | 1017.3 | |
| 20260902104631 | 94 | 0.0 | 0.0 | 0.00 | 0.00 | 0.00 | 51 | 1017.5 | |
| 20260902103631 | 91 | 0.0 | 0.0 | 0.00 | 0.00 | 0.00 | 56 | 1017.6 | |
| 20260902102631 | 90 | 0.0 | 0.0 | 0.00 | 0.00 | 0.00 | 57 | 1017.7 | |
| 20260902101631 | 89 | 0.0 | 0.0 | 0.00 | 0.00 | 0.00 | 61 | 1017.9 | |
| 20260902100631 | 89 | 0.0 | 0.0 | 0.00 | 0.00 | 0.00 | 61 | 1018.0 | |
| 20260902095631 | 88 | 0.0 | 0.0 | 0.00 | 0.00 | 0.00 | 63 | 1018.0 | |
| 20260902094631 | 87 | 0.0 | 0.0 | 0.00 | 0.00 | 0.00 | 63 | 1018.0 | |
| 20260902093631 | 86 | 0.0 | 0.0 | 0.00 | 0.00 | 0.00 | 66 | 1018.2 | |
| 20260902092631 | 86 | 0.0 | 0.0 | 0.00 | 0.00 | 0.00 | 68 | 1018.2 | |
| 20260902091631 | 85 | 0.0 | 0.0 | 0.00 | 0.00 | 0.00 | 73 | 1018.3 | |
| 20260902090631 | 84 | 0.0 | 0.0 | 0.00 | 0.00 | 0.00 | 74 | 1018.3 | |
| 20260902085631 | 85 | 0.0 | 0.0 | 0.00 | 0.00 | 0.00 | 71 | 1018.3 | |
| 20260902084631 | 85 | 0.0 | 0.0 | 0.00 | 0.00 | 0.00 | 71 | 1018.2 | |
| 20260902083631 | 82 | 0.0 | 0.0 | 0.00 | 0.00 | 0.00 | 71 | 1018.6 | |
| 20260902082631 | 83 | 0.0 | 0.0 | 0.00 | 0.00 | 0.00 | 69 | 1018.3 | |
| 20260902081631 | 83 | 0.0 | 0.0 | 0.00 | 0.00 | 0.00 | 72 | 1018.3 | |
| 20260902080631 | 82 | 0.0 | 0.0 | 0.00 | 0.00 | 0.00 | 70 | 1018.5 | |
| 20260902075631 | 81 | 0.0 | 0.0 | 0.00 | 0.00 | 0.00 | 74 | 1018.6 | |
| 20260902074631 | 80 | 0.0 | 0.0 | 0.00 | 0.00 | 0.00 | 78 | 1018.6 | |
| 20260902073631 | 79 | 0.0 | 0.0 | 0.00 | 0.00 | 0.00 | 88 | 1018.6 | |
| 20260902072631 | 78 | 0.0 | 0.0 | 0.00 | 0.00 | 0.00 | 87 | 1018.7 | |
| 20260902071631 | 78 | 0.0 | 0.0 | 0.00 | 0.00 | 0.00 | 92 | 1018.7 | |
| 20260902070631 | 76 | 0.0 | 0.0 | 0.00 | 0.00 | 0.00 | 10 | 1018.8 | |
| 20260902065631 | 76 | 0.0 | 0.0 | 0.00 | 0.00 | 0.00 | 10 | 1018.7 | |
| 20260902064631 | 75 | 0.0 | 0.0 | 0.00 | 0.00 | 0.00 | 10 | 1018.7 | |
| 20260902063631 | 75 | 0.0 | 0.0 | 0.00 | 0.00 | 0.00 | 10 | 1018.4 | |
| 20260902062631 | 74 | 0.0 | 0.0 | 0.00 | 0.00 | 0.00 | 10 | 1018.5 | |
| 20260902061631 | 74 | 0.0 | 0.0 | 0.00 | 0.00 | 0.00 | 10 | 1018.4 | |
| 20260902060631 | 74 | 0.0 | 0.0 | 0.00 | 0.00 | 0.00 | 10 | 1018.3 | |
| 20260902055631 | 74 | 0.0 | 0.0 | 0.00 | 0.00 | 0.00 | 10 | 1018.3 | |
| 20260902054631 | 74 | 0.0 | 0.0 | 0.00 | 0.00 | 0.00 | 10 | 1018.3 | |
| 20260902053631 | 75 | 0.0 | 0.0 | 0.00 | 0.00 | 0.00 | 10 | 1018.2 | |
| 20260902052631 | 75 | 0.0 | 0.0 | 0.00 | 0.00 | 0.00 | 10 | 1018.1 | |
| 20260902051631 | 75 | 0.0 | 0.0 | 0.00 | 0.00 | 0.00 | 99 | 1018.1 | |
| 20260902050631 | 75 | 0.0 | 0.0 | 0.00 | 0.00 | 0.00 | 10 | 1018.1 | |
| 20260902045631 | 75 | 0.0 | 0.0 | 0.00 | 0.00 | 0.00 | 10 | 1018.0 | |
| 20260902044631 | 76 | 0.0 | 0.0 | 0.00 | 0.00 | 0.00 | 10 | 1017.8 | |
| 20260902043631 | 76 | 0.0 | 0.0 | 0.00 | 0.00 | 0.00 | 93 | 1017.7 | |
| 20260902042631 | 76 | 0.0 | 0.0 | 0.00 | 0.00 | 0.00 | 99 | 1017.7 | |
| 20260902041631 | 76 | 0.0 | 0.0 | 0.00 | 0.00 | 0.00 | 92 | 1017.6 | |
| 20260902040631 | 77 | 0.0 | 0.0 | 0.00 | 0.00 | 0.00 | 91 | 1017.6 | |
| 20260902035631 | 77 | 0.0 | 0.0 | 0.00 | 0.00 | 0.00 | 88 | 1017.6 | |
| 20260902034631 | 77 | 0.0 | 0.0 | 0.00 | 0.00 | 0.00 | 88 | 1017.6 | |
| 20260902033631 | 77 | 0.0 | 0.0 | 0.00 | 0.00 | 0.00 | 85 | 1017.7 | |
| 20260902032631 | 77 | 0.0 | 0.0 | 0.00 | 0.00 | 0.00 | 88 | 1017.7 | |
| 20260902031631 | 78 | 0.0 | 0.0 | 0.00 | 0.00 | 0.00 | 85 | 1017.8 | |
| 20260902030631 | 78 | 0.0 | 0.0 | 0.00 | 0.00 | 0.00 | 77 | 1017.8 | |
| 20260902025631 | 78 | 0.0 | 0.0 | 0.00 | 0.00 | 0.00 | 83 | 1017.6 | |
| 20260902024631 | 79 | 0.0 | 0.0 | 0.00 | 0.00 | 0.00 | 79 | 1017.6 | |
| 20260902023631 | 79 | 0.0 | 0.0 | 0.00 | 0.00 | 0.00 | 77 | 1017.2 | |
| 20260902022631 | 80 | 0.0 | 0.0 | 0.00 | 0.00 | 0.00 | 76 | 1017.3 | |
| 20260902021631 | 79 | 0.0 | 0.0 | 0.00 | 0.00 | 0.00 | 87 | 1017.3 | |
| 20260902020631 | 79 | 0.0 | 0.0 | 0.00 | 0.00 | 0.00 | 87 | 1017.2 | |
| 20260902015631 | 80 | 0.0 | 0.0 | 0.00 | 0.00 | 0.00 | 79 | 1017.2 | |
| 20260902014631 | 80 | 0.0 | 0.0 | 0.00 | 0.00 | 0.00 | 76 | 1017.3 | |
| 20260902013631 | 80 | 0.0 | 0.0 | 0.00 | 0.00 | 0.00 | 77 | 1017.2 | |
| 20260902012631 | 81 | 0.0 | 0.0 | 0.00 | 0.00 | 0.00 | 70 | 1017.2 | |
| 20260902011631 | 82 | 0.0 | 0.0 | 0.00 | 0.00 | 0.00 | 69 | 1017.1 | |
| 20260902010631 | 82 | 0.0 | 0.0 | 0.00 | 0.00 | 0.00 | 67 | 1017.1 | |
| 20260902005631 | 83 | 0.0 | 0.0 | 0.00 | 0.00 | 0.00 | 64 | 1017.1 | |
| 20260902004631 | 83 | 0.0 | 0.0 | 0.00 | 0.00 | 0.00 | 63 | 1017.1 | |
| 20260902003631 | 83 | 0.0 | 0.0 | 0.00 | 0.00 | 0.00 | 66 | 1017.2 | |
| 20260902002631 | 83 | 0.0 | 0.0 | 0.00 | 0.00 | 0.00 | 68 | 1017.2 | |
| 20260902001631 | 84 | 0.0 | 0.0 | 0.00 | 0.00 | 0.00 | 66 | 1017.1 | |
| 20260902000631 | 83 | 0.0 | 0.0 | 0.00 | 0.00 | 0.00 | 64 | 1017.1 | |
| 20260901235631 | 83 | 0.0 | 0.0 | 0.00 | 0.00 | 0.00 | 59 | 1017.2 | |
| 20260901234631 | 83 | 0.0 | 0.0 | 0.00 | 0.00 | 0.00 | 58 | 1016.9 | |
| 20260901233631 | 84 | 0.0 | 0.0 | 0.00 | 0.00 | 0.00 | 54 | 1016.7 | |
| 20260901232631 | 85 | 0.0 | 0.0 | 0.00 | 0.00 | 0.00 | 50 | 1016.6 | |
| 20260901231630 | 85 | 0.0 | 0.0 | 0.00 | 0.00 | 0.00 | 49 | 1016.6 | |
| 20260901230631 | 83 | 0.0 | 0.0 | 0.00 | 0.00 | 0.00 | 59 | 1016.7 | |
| 20260901225630 | 85 | 0.0 | 0.0 | 0.00 | 0.00 | 0.00 | 54 | 1016.5 | |
| 20260901224630 | 86 | 0.0 | 0.0 | 0.00 | 0.00 | 0.00 | 50 | 1016.2 | |
| 20260901223630 | 87 | 0.0 | 0.0 | 0.00 | 0.00 | 0.00 | 48 | 1016.0 | |
| 20260901222631 | 86 | 0.0 | 0.0 | 0.00 | 0.00 | 0.00 | 52 | 1016.1 | |
| 20260901221630 | 84 | 0.0 | 0.0 | 0.00 | 0.00 | 0.00 | 58 | 1016.4 |